Showing default

CARBONITE 2, 43115

Orbit data source: Space-Track

CARBONITE 2, 43115 is a UK payload satellite in SSO that was launched on Fri, 12 Jan 2018 UTC via a PSLV-XL launch vehicle from the Sirharikota (SRI). Payloads include a variety of satellites, spacecraft, and rockets equipped with specific instruments for various scientific and technological missions. These include communications satellites like Starlink; space stations such as the ISS; scientific satellites like the Hubble; Earth observation satellites from companies like Planet Labs, Umbra, and HawkEye 360; GPS; miniature CubeSats for education and research; and military/defense satellites.

Loading next visibility...
CARBONITE 2 details
Identifier
43115, 2018-004E
Orbit
SSO
Last TLE update6 hours ago
Origin
Flag of UKEARI/UKSPOC (UK)
ManufacturerSSTL (Astrium)
MissionOperational Commercial Imaging
Bus & MotorCBNT, Unknown motor
Mass100 kg wet, 100 kg dry
Launch date (UTC)
2018-01-12 (7 years ago)
Launch vehicle
PSLV-XL
Launch site
Sirharikota (SRI)
Object type
Payload
Rocket body
Debris
Shape & HBRBox + Cyl, 1 m
Radar Cross Section1.100 m², Medium (>0.1 m² and < 1m²)

Expand to show TLE details & history

TLE from 6 hours ago
0 CARBONITE 2
1 43115U 18004E   24361.25326482  .00059214  00000-0  72552-3 0  9990
2 43115  97.2427  73.4671 0004162 281.9469  78.1322 15.60166425387688
Epoch: 2024-12-26T06:04Z
Definitive object data (Epoch: 2024-12-26T06:04:42.08Z)
Latitude0.00002°
Longitude-112.94355°
Altitude389.747 km
Speed7.677 km/s
True Right ascension04h 53m 52s
True Declination0° 00' 00"
Sunlit
Object was in full shadow at TLE epoch
Visualization TLE readout
Latitude-24.6695°
Longitude-109.35867°
Altitude394.843 km
Speed7.673 km/s
Apparent Right ascension02h 42m 27s
Apparent Declination-39° 57' 33"
Sunlit
Object is in full shadow
Visualization observer readout
Local Sidereal Time11:29:14
Azimuth253.879° W
Elevation-53.434°
Doppler factor1
Orbital elements
Apogee altitude386.896 km
Perigee altitude381.267 km
Semi-major axis6,762.218 km
Eccentricity0.0004162
Inclination97.2427°
RAAN73.4671°
Arg. of periapsis281.9469°
True anomaly78.17888°
Mean anomaly78.1322°
Eccentric anomaly78.15554°
Mean motion3.9031 °/min
BSTAR0.00072552
Orbital period92.23 mins
Loading maneuver chart data...

CARBONITE 2 Visibility forecast

Observer location: undefined°, undefined

Span
Click to sort rows by Start time (UTC) header in descending order
Start Az.
Max El. time (UTC)
Max El. Az.
Max El.
End time (UTC)
End Az.
5 mins2024-12-26 17:24:47.223Z37.406° NE2024-12-26 17:26:47.223Z78.652° E23.611°2024-12-26 17:29:47.223Z157.353° SSE
4 mins2024-12-27 05:18:47.223Z189.449° SSW2024-12-27 05:19:47.223Z219.193° SW37.29°2024-12-27 05:22:47.223Z338.236° N
|